Total_Precipitation_Accumulation
1.91 1.59 2.56 2.60 2.34 2.14 2.11 2.26 2.41 2.44 2.45 2.35 2.27 2.15 1.91 1.65 1.53 1.48 1.32 1.28 1.29 1.27 1.23 1.15 1.21 1.27 1.22 1.21 1.27 1.36 1.43 1.40 1.45 1.44 1.27 1.30 1.46 1.45 1.42 1.67 2.29 2.71 2.22
1.26 1.31 2.33 2.47 2.18 2.03 1.98 2.20 2.44 2.54 2.63 2.58 2.35 2.09 1.87 1.59 1.40 1.38 1.36 1.25 1.21 1.18 1.16 1.15 1.22 1.31 1.36 1.32 1.39 1.44 1.36 1.37 1.42 1.49 1.53 1.56 1.54 1.55 1.49 1.63 2.10 2.41 2.00
1.01 1.12 1.75 2.38 2.17 2.08 2.12 2.23 2.35 2.39 2.38 2.30 2.14 1.96 1.84 1.62 1.48 1.43 1.35 1.22 1.10 1.11 1.05 1.06 1.10 1.18 1.29 1.32 1.34 1.32 1.23 1.28 1.37 1.60 2.13 2.63 2.02 1.72 1.69 1.68 1.88 1.88 1.82
1.00 1.05 1.32 2.18 2.22 2.16 2.22 2.26 2.17 2.10 2.03 1.88 1.87 1.85 1.72 1.64 1.52 1.41 1.29 1.19 1.06 1.04 1.03 1.06 1.01 1.05 1.15 1.20 1.25 1.15 1.08 1.23 1.36 1.58 2.07 2.65 2.51 2.16 2.01 1.95 1.99 1.79 1.82
0.98 1.08 1.50 2.24 2.28 2.22 2.16 2.14 2.17 1.99 1.92 1.73 1.63 1.68 1.62 1.58 1.43 1.35 1.28 1.14 1.04 1.05 0.98 1.03 1.04 1.05 1.19 1.22 1.17 1.09 1.05 1.18 1.40 1.29 1.61 2.18 2.76 2.58 2.02 2.01 2.09 1.90 1.89
1.05 1.14 1.52 2.07 2.19 2.21 2.14 2.09 2.01 1.83 1.72 1.63 1.53 1.58 1.58 1.53 1.41 1.31 1.22 1.17 1.09 1.08 1.02 1.04 1.12 1.17 1.26 1.23 1.19 1.22 1.25 1.25 1.18 1.31 1.68 2.13 2.70 2.59 2.07 1.92 1.82 1.91 1.94
1.12 1.11 1.42 1.92 2.03 2.12 2.03 1.84 1.81 1.79 1.66 1.52 1.47 1.45 1.45 1.47 1.41 1.33 1.36 1.33 1.20 1.15 1.12 1.14 1.25 1.21 1.22 1.23 1.28 1.33 1.41 1.22 1.10 1.43 1.58 1.96 2.28 2.37 2.01 1.83 1.84 2.05 2.03
1.17 1.09 1.22 1.67 1.87 1.93 1.87 1.79 1.79 1.75 1.62 1.45 1.35 1.33 1.35 1.37 1.29 1.22 1.27 1.26 1.23 1.21 1.20 1.16 1.20 1.11 1.12 1.24 1.35 1.45 1.50 1.21 1.03 1.23 1.30 1.74 2.37 2.45 1.97 1.83 1.85 2.05 2.21
1.44 1.27 1.19 1.32 1.53 1.68 1.84 1.85 1.90 1.86 1.78 1.63 1.44 1.37 1.36 1.28 1.12 1.08 1.19 1.25 1.27 1.23 1.26 1.28 1.29 1.19 1.16 1.31 1.44 1.53 1.51 1.21 1.16 1.23 1.11 1.76 2.54 2.30 1.87 1.66 1.66 1.84 1.99
1.40 1.36 1.28 1.32 1.40 1.47 1.62 1.86 2.09 2.17 2.21 1.93 1.58 1.48 1.34 1.16 1.07 1.13 1.18 1.28 1.39 1.39 1.42 1.47 1.46 1.35 1.36 1.40 1.45 1.47 1.31 1.05 1.13 1.10 1.38 1.78 2.44 2.32 1.88 1.60 1.57 1.53 1.63
1.01 1.08 1.15 1.21 1.35 1.40 1.45 1.56 1.93 2.14 2.27 1.92 1.45 1.47 1.32 1.08 1.03 1.14 1.20 1.57 1.67 1.68 1.70 1.71 1.65 1.59 1.51 1.43 1.47 1.42 1.08 0.84 0.99 1.21 1.60 2.07 2.45 2.34 1.90 1.67 1.43 1.40 1.42
0.83 0.78 0.80 0.82 0.92 1.10 1.21 1.48 1.79 1.84 1.95 1.63 1.39 1.38 1.31 1.37 1.32 1.09 1.22 1.63 1.82 1.87 1.74 1.68 1.71 1.58 1.33 1.11 1.09 1.07 0.94 0.89 0.99 1.20 1.62 2.36 2.61 2.37 1.96 1.68 1.42 1.35 1.36
0.61 0.60 0.60 0.64 0.66 0.84 1.18 1.48 1.73 1.84 1.92 1.88 1.82 1.59 1.55 1.47 1.27 1.12 1.11 1.21 1.33 1.38 1.30 1.41 1.44 1.26 1.17 1.05 1.01 0.95 0.87 0.99 1.24 1.28 1.73 2.47 2.79 2.54 2.16 1.86 1.56 1.48 1.50
0.63 0.63 0.56 0.50 0.56 0.71 0.90 1.13 1.46 1.66 1.74 1.71 1.65 1.36 1.42 1.44 1.27 1.23 1.32 1.39 1.35 1.32 1.47 1.54 1.52 1.43 1.26 1.05 1.03 1.05 1.01 1.01 1.23 1.38 1.77 2.18 2.69 2.91 2.57 2.18 1.95 1.85 1.81
0.74 0.83 0.77 0.62 0.60 0.69 0.79 0.83 1.00 1.20 1.31 1.56 1.63 1.28 1.17 1.21 1.31 1.33 1.23 1.40 1.47 1.48 1.53 1.61 1.53 1.43 1.44 1.27 1.25 1.23 1.24 1.12 1.19 1.26 1.52 1.79 2.28 2.95 3.10 2.81 2.52 2.29 2.13
0.60 0.71 0.75 0.75 0.76 0.79 0.77 0.71 0.70 0.77 0.95 1.11 1.15 1.01 0.97 0.99 1.15 1.36 1.28 1.27 1.36 1.55 1.64 1.66 1.59 1.63 1.61 1.42 1.38 1.39 1.36 1.31 1.33 1.38 1.51 1.47 1.56 2.08 2.71 3.02 3.03 2.79 2.52
0.51 0.56 0.64 0.70 0.76 0.82 0.90 0.87 0.72 0.73 0.84 0.89 0.88 0.89 0.93 0.93 1.09 1.33 1.27 1.18 1.18 1.34 1.54 1.75 1.81 1.79 1.57 1.48 1.45 1.44 1.37 1.36 1.37 1.53 1.56 1.58 1.48 1.52 1.96 2.38 2.78 2.84 2.83
0.49 0.50 0.55 0.54 0.63 0.75 0.89 0.97 0.93 0.91 0.93 0.88 0.78 0.73 0.76 0.80 0.88 1.14 1.23 1.15 1.14 1.30 1.53 1.79 1.96 1.99 1.80 1.73 1.72 1.63 1.46 1.44 1.39 1.52 1.56 1.63 1.72 1.50 1.48 1.60 1.92 2.26 2.42
0.47 0.48 0.49 0.52 0.56 0.62 0.76 0.86 0.87 0.89 0.93 0.89 0.82 0.75 0.72 0.71 0.82 1.08 1.31 1.34 1.30 1.42 1.53 1.55 1.80 1.93 2.02 1.91 1.73 1.61 1.54 1.56 1.56 1.51 1.65 1.65 1.67 1.59 1.42 1.18 1.23 1.47 1.77
0.46 0.47 0.53 0.54 0.54 0.55 0.60 0.70 0.78 0.78 0.80 0.85 0.80 0.79 0.84 0.91 0.99 1.23 1.49 1.52 1.57 1.60 1.69 1.89 2.16 2.20 2.11 2.08 1.86 1.63 1.51 1.54 1.59 1.69 1.71 1.69 1.70 1.53 1.38 1.22 1.12 0.99 1.22
0.41 0.43 0.49 0.56 0.55 0.51 0.48 0.56 0.64 0.66 0.76 0.87 0.94 1.01 1.02 1.05 1.15 1.39 1.60 1.83 1.94 1.80 1.83 2.07 2.37 2.52 2.32 2.14 2.22 2.08 1.91 1.72 1.68 1.63 1.64 1.70 1.72 1.65 1.52 1.46 1.34 1.21 1.18
0.31 0.35 0.42 0.45 0.44 0.40 0.38 0.45 0.56 0.64 0.73 0.92 1.10 1.32 1.25 1.17 1.22 1.27 1.55 1.75 1.83 1.90 1.93 2.04 2.34 2.68 2.48 2.19 2.40 2.79 2.59 2.37 1.90 1.58 1.69 1.74 1.80 1.72 1.59 1.42 1.41 1.35 1.33
0.27 0.32 0.38 0.40 0.41 0.40 0.47 0.65 0.94 1.20 1.33 1.39 1.45 1.69 1.72 1.59 1.55 1.53 1.58 1.70 1.76 1.91 2.05 2.09 2.13 2.46 2.56 2.37 2.34 2.91 2.89 2.67 2.45 1.97 1.65 1.70 1.82 1.86 1.81 1.68 1.54 1.48 1.42
0.27 0.33 0.37 0.40 0.47 0.49 0.63 0.96 1.38 1.71 1.83 1.81 1.89 1.98 2.08 2.01 1.85 1.86 1.88 1.95 1.87 1.86 1.96 1.96 1.94 2.19 2.54 2.60 2.42 2.26 2.23 2.33 2.67 2.42 1.89 1.73 1.76 1.78 1.86 1.73 1.73 1.74 1.70
0.34 0.41 0.46 0.52 0.70 0.86 0.97 1.15 1.47 1.64 1.73 1.86 2.02 2.26 2.44 2.49 2.42 2.37 2.30 2.14 1.94 1.89 1.96 2.00 2.01 2.12 2.24 2.41 2.38 2.20 2.16 2.12 2.02 2.22 2.19 1.98 1.78 1.67 1.76 1.78 1.77 1.76 1.82
0.49 0.56 0.60 0.73 0.87 0.95 1.05 1.17 1.29 1.38 1.54 1.75 1.94 2.20 2.37 2.41 2.41 2.34 2.17 1.93 1.77 1.72 1.81 1.96 1.98 2.05 2.05 2.13 2.12 2.01 2.01 1.98 1.93 2.09 2.05 2.06 2.02 1.65 1.50 1.56 1.61 1.66 1.64